Temperature
19 19 19 18 18 17 17 17 17 17 17 18 18 18 18 18 17 17 17 17 17 17 17 16 16 16 16 16 15 15 15 15 14 14 14 14 13 13 13 13 13 14 13
19 19 19 18 18 17 17 17 17 17 17 17 17 17 17 17 17 17 17 17 17 17 16 16 16 16 16 15 15 15 15 15 14 14 14 14 13 13 13 13 13 13 13
19 19 18 18 17 17 17 17 17 17 17 17 17 17 17 17 17 17 17 17 16 16 16 16 16 16 15 15 15 15 15 14 14 14 14 13 13 13 13 13 13 13 13
18 18 18 18 17 17 17 17 17 17 17 17 17 17 17 17 17 17 16 16 16 16 16 16 16 15 15 15 15 15 14 14 14 14 13 13 13 13 13 12 12 12 12
18 18 17 17 17 17 17 17 17 17 17 17 16 16 16 16 16 16 16 16 16 16 15 15 15 15 15 15 15 14 14 14 14 13 13 13 13 12 12 12 12 12 12
17 17 17 16 16 17 17 17 16 16 16 16 16 16 16 16 16 16 16 16 16 15 15 15 15 15 15 14 14 14 14 14 14 13 13 13 12 12 12 12 12 12 12
16 16 16 16 16 16 16 16 16 16 16 16 16 16 16 16 16 16 16 15 15 15 15 15 14 14 14 14 14 14 14 14 13 13 13 12 12 12 12 11 12 11 11
16 16 16 16 16 16 16 16 16 16 16 16 16 16 16 16 16 15 15 15 15 15 15 14 14 14 14 14 14 14 13 13 13 13 12 12 12 12 11 11 11 11 11
15 15 15 15 15 15 15 15 16 15 15 15 15 15 16 15 15 15 15 15 15 15 15 14 14 14 14 14 14 13 13 13 13 12 12 12 12 11 11 11 11 11 11
14 15 15 15 15 15 15 15 15 15 15 15 15 15 15 15 15 15 15 15 15 15 14 14 14 14 14 14 13 13 13 13 12 12 12 12 11 11 11 11 11 11 11
14 14 14 14 14 15 15 15 15 15 15 15 15 15 15 15 15 15 14 14 14 14 14 14 14 13 13 13 13 13 13 12 12 12 12 11 11 11 11 11 11 11 11
13 13 13 14 14 14 14 14 14 15 15 14 14 14 14 14 14 14 14 14 14 14 14 14 13 13 13 13 13 12 12 12 12 12 11 11 11 11 11 11 11 10 10
12 13 13 13 13 13 14 14 14 14 14 14 14 14 14 14 14 14 14 14 14 14 13 13 13 13 13 13 13 12 12 12 12 11 11 11 11 11 11 11 10 10 10
12 12 13 13 13 13 13 13 13 13 13 14 14 14 14 14 14 14 14 13 14 14 13 13 13 13 13 13 12 12 12 12 11 11 11 11 11 11 10 10 10 10 10
11 12 12 12 12 12 12 13 13 13 13 13 13 13 13 13 13 13 13 13 13 13 13 13 13 13 12 12 12 12 12 11 11 11 11 11 11 10 10 10 10 10 10
11 11 11 12 12 12 12 12 12 12 12 12 13 13 13 13 13 13 13 13 13 13 13 13 13 12 12 12 12 12 11 11 11 11 11 10 10 10 10 10 10 10 10
11 11 11 11 11 11 11 11 11 12 12 12 12 12 12 12 12 13 13 13 13 13 12 12 12 12 12 12 11 11 11 11 11 11 10 10 10 10 10 10 10 10 9
10 10 10 11 11 11 11 11 11 11 11 11 12 12 12 12 12 12 12 12 12 12 12 12 12 11 11 11 11 11 11 11 11 10 10 10 10 10 10 10 10 10 9
10 10 10 10 10 10 10 10 11 11 11 11 11 11 11 11 12 12 12 12 12 12 12 11 11 11 11 11 11 11 10 10 10 10 10 10 10 10 10 10 10 9 9
9 9 9 9 10 10 10 10 10 10 10 10 11 11 11 11 11 11 11 11 11 11 11 11 11 11 11 11 10 10 10 10 10 10 10 10 10 10 10 10 9 9 9
9 9 9 9 9 9 9 9 9 10 10 10 10 10 10 11 11 11 11 11 11 11 11 11 11 10 10 10 10 9 9 9 10 10 10 10 10 10 10 9 9 9 9
9 9 9 8 8 8 9 9 9 9 9 9 10 10 10 10 10 10 10 10 11 10 10 10 10 10 10 10 10 9 9 9 9 10 10 10 10 10 10 9 9 9 9
8 8 8 8 8 8 8 8 8 8 8 8 9 9 10 10 10 10 10 10 10 10 10 10 10 10 10 9 9 9 9 9 9 9 10 10 10 10 10 9 9 9 9
8 8 8 8 8 8 8 8 8 8 8 8 8 9 9 9 9 9 9 9 10 10 10 10 10 10 10 9 9 9 10 10 9 9 9 9 10 10 10 9 9 9 9
8 8 7 7 7 7 7 7 7 7 7 8 8 8 8 9 9 9 9 9 9 9 9 9 9 10 10 10 9 9 9 9 10 9 9 9 9 10 10 9 9 9 9
7 7 7 7 7 7 7 7 7 7 7 7 7 8 8 8 8 8 8 8 9 9 9 9 9 9 9 9 9 9 9 10 10 10 10 9 9 9 9 9 9 9 9
Wind_Speed
4 3 5 6 8 9 9 10 12 12 12 13 14 15 16 17 17 17 17 17 16 16 15 15 16 16 15 16 15 14 14 14 14 14 14 14 13 14 14 14 14 13 16
3 3 5 6 7 9 10 10 10 11 12 12 14 15 15 16 16 17 17 17 17 16 16 16 16 16 16 15 15 14 14 14 14 13 13 13 13 13 14 14 14 13 15
3 1 4 5 6 7 9 10 10 10 11 12 13 14 15 16 16 17 17 17 17 16 16 16 15 16 16 15 15 15 14 14 14 13 12 11 12 13 14 14 14 15 15
3 2 2 3 5 7 8 9 10 11 11 12 13 14 14 15 16 17 17 17 17 16 16 15 15 15 15 15 15 15 15 14 14 12 10 9 10 13 14 14 14 15 15
3 3 2 2 4 6 7 8 9 11 12 12 12 14 15 15 15 16 17 17 17 16 16 16 16 15 15 15 15 15 14 14 13 11 10 8 8 12 14 14 14 14 14
4 5 4 3 4 5 6 7 8 10 11 12 13 13 14 15 15 16 16 17 17 17 17 17 16 16 16 16 15 14 14 14 12 11 9 8 8 12 14 14 14 14 13
4 5 4 4 4 5 6 7 8 9 10 12 13 13 13 15 16 15 16 16 17 18 18 18 17 16 16 15 15 15 15 14 12 10 8 7 8 12 13 13 13 13 13
4 4 4 4 5 5 5 6 7 8 9 11 12 13 13 13 15 16 17 16 17 18 18 18 18 17 16 16 15 15 15 14 11 9 7 7 9 11 12 12 12 12 12
5 4 4 4 4 5 5 6 7 8 9 10 11 12 12 13 14 17 17 17 17 17 19 19 19 18 17 16 16 15 15 13 11 8 7 7 10 11 11 11 11 11 11
4 4 3 4 4 4 5 6 7 8 9 10 11 11 11 12 13 15 17 18 18 18 18 19 19 19 18 17 16 16 15 12 10 8 7 8 10 11 11 11 11 11 10
5 5 4 4 4 4 5 6 7 7 9 9 9 10 10 9 10 11 14 17 19 19 19 19 20 19 18 17 17 16 14 10 10 8 7 9 10 11 11 10 10 10 9
8 6 4 4 4 4 4 4 4 6 6 6 6 7 7 7 8 9 12 16 18 19 19 19 20 19 15 13 14 14 10 10 9 7 8 10 10 11 11 10 10 10 9
8 7 6 5 4 4 3 3 2 3 3 4 5 6 6 6 6 7 8 10 13 15 13 14 14 12 12 11 10 10 10 10 8 7 9 11 10 11 11 10 10 9 8
8 8 6 5 4 4 4 3 3 3 3 4 4 6 6 4 5 5 5 6 8 9 9 8 7 10 11 12 12 10 9 8 8 8 9 11 10 10 11 10 10 9 9
8 8 8 6 5 5 4 4 4 4 4 5 5 6 7 6 6 6 6 6 7 8 9 8 8 9 10 10 10 10 9 8 9 8 8 10 10 10 11 10 10 10 9
8 8 8 6 5 5 4 4 4 4 4 4 4 6 7 7 7 7 7 7 7 8 9 9 9 9 9 9 9 9 9 9 9 9 9 9 10 10 11 10 10 10 10
8 7 7 7 5 5 5 6 5 5 4 5 5 6 7 7 8 8 7 7 7 9 10 8 8 7 7 8 9 9 8 8 8 8 9 8 9 10 10 10 10 10 10
6 7 7 7 6 6 5 5 5 5 5 6 5 6 7 8 8 8 7 8 8 8 9 9 9 8 8 8 8 7 7 7 7 8 8 8 8 8 9 10 10 10 10
6 6 6 7 6 6 6 5 5 5 6 6 6 6 7 8 9 8 8 8 9 8 8 9 8 8 8 8 8 7 6 6 7 7 7 8 9 9 8 9 9 9 9
6 5 5 6 6 6 5 4 4 5 5 6 6 7 8 8 10 9 7 9 9 8 8 9 9 8 7 8 8 6 5 5 5 6 7 7 8 9 9 9 8 8 8
5 5 5 5 6 4 3 4 3 4 5 5 6 8 9 9 9 9 7 8 9 9 10 10 8 10 7 7 5 4 1 3 5 6 6 6 6 8 9 9 9 8 8
5 5 5 6 6 5 5 5 4 5 5 6 6 7 8 9 10 10 10 9 10 9 10 11 9 8 6 8 7 6 3 3 4 5 5 7 7 6 7 9 10 9 9
5 5 6 7 6 6 6 4 4 3 3 5 5 6 7 9 10 10 11 11 11 11 11 11 13 11 10 8 7 7 6 6 3 3 5 6 7 6 6 7 9 10 10
7 6 7 7 6 6 5 5 6 6 7 7 7 7 8 9 9 10 10 11 12 11 11 12 12 10 12 11 7 4 3 5 5 3 3 4 6 7 7 6 7 9 10
7 6 6 7 7 6 6 6 7 8 8 6 6 7 8 8 9 10 11 11 11 10 11 12 12 12 11 11 9 5 3 2 3 4 5 4 4 5 6 6 6 7 9
7 6 6 7 7 7 7 7 8 9 8 8 9 8 8 7 7 10 11 11 11 10 11 12 12 14 13 11 9 7 6 6 5 4 5 6 5 4 4 4 5 7 8
Wind_Direction
295 276 222 179 174 173 172 172 166 161 158 156 156 154 153 153 153 151 150 147 145 142 140 138 135 133 130 127 124 122 121 120 115 111 110 108 106 103 101 96 93 89 93
276 247 219 188 178 181 179 174 172 168 165 163 161 159 157 156 155 154 153 151 149 147 144 140 138 135 131 127 126 124 122 119 114 109 107 107 111 110 107 105 102 99 96
338 275 219 200 189 188 187 183 177 173 173 171 168 165 164 163 161 159 158 157 155 152 148 144 140 137 133 131 128 125 124 120 114 108 101 99 112 116 112 108 104 100 98
341 335 273 213 197 194 194 194 187 181 179 180 177 174 171 170 168 165 164 162 159 155 151 148 145 141 137 136 132 129 125 121 116 108 99 102 113 117 114 111 105 101 99
352 346 312 264 211 201 198 201 198 192 189 187 185 182 179 177 175 172 168 165 162 158 154 151 148 144 141 140 136 133 129 125 118 108 103 104 112 120 117 113 108 105 103
345 342 322 286 242 222 212 209 206 204 200 196 192 187 185 182 181 178 175 169 166 163 159 156 151 147 146 145 142 139 135 129 118 110 109 109 114 122 119 115 112 110 107
334 336 325 301 265 244 234 224 216 212 208 204 200 195 191 190 186 182 178 174 171 168 165 162 157 154 153 151 148 143 139 133 124 118 118 120 124 124 122 119 117 114 111
320 324 325 307 285 260 244 239 228 222 215 209 206 203 199 195 193 188 183 178 175 173 169 166 162 160 159 158 152 147 143 137 133 128 131 135 138 132 127 125 123 121 118
328 324 326 318 298 283 262 246 241 231 227 218 210 204 202 202 198 195 187 180 178 177 173 170 167 164 164 162 155 151 147 143 138 137 142 147 147 141 134 132 129 127 122
318 314 310 318 310 292 272 256 251 246 236 230 219 210 204 205 203 198 191 185 182 180 176 174 171 169 167 164 158 154 149 143 144 146 151 157 153 148 143 140 135 132 127
310 302 293 296 301 298 287 270 255 248 243 233 226 214 207 204 200 195 193 188 185 182 180 178 174 172 166 165 160 154 147 145 150 155 164 165 159 154 150 148 143 139 135
295 292 280 278 283 285 285 283 266 247 242 235 222 211 203 198 196 192 191 191 188 183 181 180 177 171 162 158 158 153 147 151 153 164 174 171 168 162 157 155 151 148 145
279 278 280 271 274 273 269 262 261 254 234 232 223 210 201 192 189 183 182 188 187 180 177 176 174 164 156 152 150 153 154 156 161 172 180 178 176 170 164 163 162 160 158
290 286 278 268 264 267 264 257 244 249 236 220 219 210 192 190 190 182 182 182 181 175 169 164 163 160 157 157 156 157 160 163 168 176 185 185 183 180 175 173 173 173 172
290 291 284 270 259 258 256 251 248 237 238 223 214 212 202 196 202 194 187 184 186 176 172 170 168 167 164 162 163 165 167 171 174 178 187 190 189 190 185 183 184 185 182
285 291 286 275 261 255 252 246 241 232 234 233 217 218 210 203 200 200 194 190 190 182 176 175 175 174 173 168 169 171 172 174 179 181 187 193 195 197 196 193 194 192 186
279 282 286 277 267 260 258 251 243 238 225 226 224 221 214 208 201 200 196 194 191 184 177 172 172 171 173 170 173 173 175 178 179 185 186 190 195 199 201 202 200 198 195
273 276 282 290 280 268 261 258 246 237 233 226 219 218 219 211 207 202 202 197 187 183 180 178 177 176 179 176 174 178 179 179 183 187 185 188 191 196 202 204 205 205 204
264 268 277 286 278 273 268 261 254 240 234 228 219 218 222 219 208 207 209 198 185 185 189 186 181 177 179 179 176 176 179 184 186 186 188 191 193 194 197 202 206 210 212
269 263 266 283 281 276 275 269 264 249 239 230 221 222 224 224 215 208 211 198 185 186 191 188 181 178 178 173 171 170 177 186 187 192 195 192 194 196 196 199 202 209 213
286 274 272 283 278 276 274 264 260 255 247 239 228 225 223 226 220 209 215 201 191 193 193 190 182 177 175 159 149 153 157 187 199 199 196 193 196 196 196 198 200 203 210
283 278 276 277 266 262 260 252 246 250 247 241 238 228 224 223 223 217 211 204 197 196 193 191 179 174 176 171 162 155 170 204 225 208 196 199 200 192 196 200 200 202 205
288 282 280 276 270 265 269 272 274 271 263 251 245 234 226 224 224 219 215 207 200 197 199 195 188 180 181 186 179 167 169 197 187 208 205 203 198 196 200 196 200 204 205
277 283 278 277 278 272 267 267 260 256 256 251 243 240 236 227 224 217 213 209 203 201 201 198 197 188 179 185 187 198 175 154 162 183 210 205 201 203 202 200 199 201 202
276 279 285 287 281 279 270 262 262 257 253 255 249 243 240 234 227 222 213 209 202 201 202 201 199 192 188 187 185 175 168 154 150 163 189 198 207 212 204 201 199 199 200
283 282 281 284 284 280 276 270 261 262 261 260 257 244 240 237 231 224 216 209 204 200 200 201 202 196 193 191 189 181 174 170 175 172 184 190 202 211 202 195 197 199 199
Height
1484 1484 1484 1484 1486 1487 1488 1490 1492 1493 1495 1496 1498 1499 1500 1502 1503 1504 1505 1507 1508 1509 1510 1511 1512 1512 1513 1514 1514 1515 1516 1516 1517 1518 1518 1519 1519 1519 1520 1520 1521 1521 1522
1484 1484 1484 1485 1486 1487 1489 1490 1492 1493 1495 1496 1498 1499 1500 1502 1503 1504 1505 1506 1508 1509 1510 1511 1511 1512 1513 1514 1514 1515 1516 1516 1517 1518 1518 1519 1519 1520 1520 1521 1522 1522 1522
1484 1484 1484 1485 1486 1487 1489 1490 1491 1493 1495 1496 1497 1498 1500 1501 1503 1504 1505 1506 1507 1508 1509 1510 1511 1512 1513 1513 1514 1515 1516 1516 1517 1518 1518 1519 1520 1521 1521 1522 1522 1523 1523
1484 1484 1485 1485 1486 1487 1488 1490 1491 1492 1494 1495 1496 1497 1499 1500 1502 1503 1504 1505 1507 1508 1509 1510 1511 1511 1512 1513 1514 1515 1516 1516 1517 1518 1519 1519 1520 1521 1522 1522 1523 1523 1524
1484 1484 1484 1485 1486 1487 1488 1489 1490 1491 1493 1494 1495 1496 1498 1499 1500 1502 1503 1504 1505 1507 1508 1509 1510 1511 1512 1513 1514 1514 1515 1516 1517 1518 1519 1520 1521 1522 1522 1523 1523 1524 1524
1483 1483 1484 1484 1485 1486 1487 1488 1489 1490 1491 1492 1493 1495 1496 1497 1499 1500 1502 1503 1504 1505 1507 1508 1509 1510 1511 1512 1513 1514 1515 1516 1517 1518 1519 1520 1521 1522 1522 1523 1524 1524 1525
1482 1482 1483 1483 1484 1485 1486 1486 1487 1488 1489 1490 1491 1493 1494 1496 1497 1499 1500 1501 1503 1504 1505 1507 1508 1509 1511 1512 1513 1513 1515 1516 1517 1518 1519 1520 1522 1522 1523 1523 1524 1525 1525
1481 1481 1481 1482 1482 1483 1483 1484 1485 1486 1487 1487 1489 1490 1492 1493 1495 1496 1498 1499 1500 1502 1503 1505 1506 1508 1509 1511 1512 1513 1514 1515 1516 1518 1519 1520 1522 1522 1523 1524 1524 1525 1525
1479 1479 1479 1480 1480 1480 1481 1482 1482 1483 1484 1485 1486 1487 1489 1490 1492 1493 1495 1496 1498 1499 1501 1503 1505 1506 1508 1509 1511 1512 1513 1515 1516 1517 1519 1520 1521 1522 1523 1524 1524 1525 1525
1477 1477 1477 1477 1477 1477 1478 1478 1479 1480 1481 1482 1483 1484 1485 1487 1489 1490 1492 1494 1495 1497 1499 1501 1503 1504 1506 1508 1509 1511 1512 1514 1515 1517 1518 1520 1521 1522 1523 1523 1524 1524 1525
1474 1474 1474 1474 1474 1474 1474 1475 1475 1476 1477 1478 1479 1480 1482 1484 1485 1487 1489 1490 1492 1494 1496 1498 1500 1502 1504 1506 1507 1509 1511 1513 1515 1516 1518 1519 1520 1521 1522 1523 1524 1524 1524
1470 1470 1470 1470 1470 1470 1470 1471 1471 1472 1473 1474 1475 1476 1478 1479 1481 1483 1485 1487 1489 1491 1493 1496 1498 1500 1502 1504 1505 1507 1509 1511 1513 1515 1517 1518 1520 1521 1522 1522 1523 1524 1524
1466 1465 1465 1465 1466 1466 1466 1466 1466 1467 1468 1469 1470 1472 1473 1475 1477 1479 1481 1483 1485 1487 1490 1492 1495 1497 1499 1501 1503 1505 1507 1510 1511 1514 1516 1517 1519 1520 1521 1522 1523 1523 1523
1461 1461 1461 1461 1461 1461 1462 1462 1462 1462 1463 1464 1465 1467 1468 1470 1471 1473 1476 1478 1480 1482 1485 1488 1490 1493 1495 1498 1500 1503 1505 1507 1510 1512 1514 1516 1517 1519 1520 1521 1522 1522 1523
1457 1456 1456 1456 1456 1456 1457 1457 1457 1457 1458 1458 1460 1462 1464 1464 1466 1468 1471 1473 1476 1477 1480 1483 1486 1489 1491 1494 1497 1500 1503 1505 1507 1510 1512 1514 1516 1517 1519 1519 1520 1521 1521
1453 1452 1451 1451 1451 1451 1451 1451 1452 1452 1453 1454 1455 1457 1458 1460 1461 1463 1465 1468 1471 1473 1475 1478 1481 1485 1488 1490 1493 1496 1499 1503 1505 1507 1509 1512 1513 1515 1517 1518 1519 1519 1520
1448 1448 1447 1447 1447 1446 1446 1446 1446 1447 1448 1449 1449 1451 1453 1454 1456 1458 1460 1462 1466 1469 1471 1473 1476 1480 1483 1486 1489 1493 1496 1499 1502 1504 1507 1509 1511 1513 1514 1516 1517 1517 1518
1444 1443 1443 1442 1442 1441 1441 1441 1441 1441 1442 1443 1444 1446 1447 1449 1451 1452 1454 1457 1460 1463 1466 1468 1471 1474 1478 1481 1485 1488 1492 1495 1498 1501 1504 1506 1508 1510 1511 1513 1514 1515 1516
1440 1439 1438 1438 1437 1436 1436 1436 1436 1436 1436 1438 1438 1440 1442 1444 1445 1447 1449 1451 1454 1457 1460 1463 1465 1469 1472 1476 1480 1484 1488 1491 1494 1497 1500 1502 1504 1506 1508 1510 1511 1512 1513
1435 1435 1434 1433 1432 1432 1431 1431 1430 1430 1430 1432 1432 1434 1435 1437 1440 1441 1443 1445 1448 1451 1454 1458 1460 1464 1468 1471 1476 1480 1484 1487 1490 1493 1496 1498 1501 1503 1505 1507 1508 1509 1510
1431 1430 1429 1429 1428 1427 1426 1425 1424 1424 1424 1425 1427 1428 1429 1431 1433 1435 1437 1439 1441 1444 1448 1452 1456 1458 1462 1467 1472 1476 1480 1483 1486 1489 1492 1494 1496 1499 1501 1503 1505 1506 1507
1427 1426 1425 1425 1423 1422 1421 1420 1419 1418 1418 1419 1420 1421 1423 1425 1427 1429 1430 1433 1435 1438 1442 1446 1449 1452 1456 1461 1465 1470 1474 1479 1480 1483 1486 1489 1492 1494 1496 1499 1501 1502 1503
1423 1422 1421 1420 1419 1417 1416 1415 1414 1413 1413 1413 1413 1414 1416 1418 1420 1422 1424 1426 1428 1432 1435 1438 1442 1445 1450 1454 1459 1463 1467 1469 1474 1478 1480 1483 1487 1489 1492 1494 1496 1498 1499
1420 1419 1417 1416 1414 1413 1412 1411 1409 1408 1406 1406 1407 1408 1409 1411 1412 1415 1417 1419 1421 1424 1428 1432 1436 1440 1444 1447 1453 1457 1460 1462 1467 1471 1474 1478 1481 1484 1487 1489 1492 1493 1495
1417 1415 1413 1411 1410 1409 1407 1406 1404 1403 1402 1401 1401 1402 1403 1404 1405 1408 1410 1412 1414 1417 1421 1426 1430 1434 1437 1441 1445 1449 1454 1457 1461 1463 1466 1471 1475 1478 1481 1484 1487 1489 1490
1413 1411 1410 1408 1406 1404 1402 1400 1399 1397 1396 1395 1395 1395 1396 1397 1399 1401 1403 1405 1407 1410 1414 1418 1423 1426 1431 1436 1440 1443 1447 1451 1454 1459 1461 1464 1469 1473 1476 1479 1481 1484 1486